This demonstration page uses our WeatherBlox Daily Observations layout. Learn more.

Left ArrowRight Arrow

30.21309, -93.2044

Hourly Observations for June 30, 2019

Temp ( °F °C ) Dew Point ( °F °C ) Humidity (%) Winds ( mph kmh ) Pressure ( in mb ) Visibility ( mi km ) Precip ( " mm )
12:15 am 00:15 Clear 72 22 70 21 94 94 N 3 6 30.06 1018 10 16 0.00 0.00
12:35 am 00:35 Clear 72 22.2 70 21.3 95 95 N 5 7 30.06 1018 10 16 0.01 0.25
12:55 am 00:55 Clear 72 22.3 70 21.1 93 93 Calm 30.06 1018 10 16 0.01 0.25
1:15 am 01:15 Clear 72 22 70 21.1 95 95 NNW 3 6 30.05 1018 10 16 0.00 0.00
1:35 am 01:35 Clear 71 21.7 70 21 96 96 NW 3 6 30.05 1018 10 16 0.00 0.00
1:55 am 01:55 Clear 71 21.7 70 21 96 96 Calm 30.04 1017 10 16 0.01 0.25
2:15 am 02:15 Partly Cloudy 71 21.5 69 20.8 96 96 Calm 30.03 1017 10 16 0.00 0.00
2:35 am 02:35 Partly Cloudy 71 21.5 69 20.7 95 95 Calm 30.03 1017 10 16 0.00 0.00
2:55 am 02:55 Cloudy 71 21.5 69 20.6 95 95 Calm 30.02 1017 10 16 0.00 0.00
3:15 am 03:15 Cloudy 71 21.5 70 20.9 96 96 N 6 9 30.02 1017 10 16 0.00 0.00
3:35 am 03:35 Cloudy 71 21.5 70 21.1 98 98 Calm 30.02 1017 7 11 0.00 0.00
4:15 am 04:15 Cloudy 71 21.5 70 21 97 97 E 3 6 30.01 1016 10 16 0.00 0.00
4:35 am 04:35 Cloudy 71 21.4 70 21 98 98 SE 3 6 30.01 1016 7 11 0.00 0.00
4:55 am 04:55 Partly Cloudy 70 21.3 69 20.8 97 97 Calm 30.01 1016 10 16 0.00 0.00
5:15 am 05:15 Clear 71 21.5 70 21 97 97 Calm 30.01 1016 10 16 0.00 0.00
5:35 am 05:35 Clear 70 21 69 20.6 98 98 Calm 30.02 1017 7 11 0.00 0.00
6:00 am 06:00 Mostly Clear 70 21 70 21 100 100 Calm 30.02 1017 10 16 0.00 0.00
6:55 am 06:55 Cloudy with Mist and Fog 70 21 70 21 100 100 Calm 30.04 1017 5 8 0.00 0.00
7:45 am 07:45 Cloudy with Mist and Fog 72 22 72 22 100 100 VRB 6 9 30.04 1017 2 3 0.00 0.00
8:55 am 08:55 Cloudy with Mist and Fog 72 22 72 22 100 100 VRB 6 9 30.04 1017 2 3 0.00 0.00
9:45 am 09:45 Mostly Cloudy 79 26 72 22 79 79 VRB 5 7 30.08 1019 10 16 0.00 0.00
11:55 am 11:55 Mostly Cloudy 81 27 70 21 70 70 VRB 7 11 30.08 1019 10 16 0.00 0.00
12:50 pm 12:50 Mostly Cloudy 82 28 68 20 62 62 VRB 7 11 30.08 1019 10 16 0.00 0.00
1:45 pm 13:45 Mostly Cloudy 82 28 70 21 66 66 VRB 7 11 30.07 1018 10 16 0.00 0.00
2:55 pm 14:55 Partly Cloudy 82 28 68 20 62 62 Calm 30.05 1018 10 16 0.00 0.00
3:55 pm 15:55 Partly Cloudy 86 30 70 21 59 59 Calm 30.02 1017 10 16 0.00 0.00
4:55 pm 16:55 Partly Cloudy 86 30 68 20 55 55 Calm 30.00 1016 10 16 0.00 0.00
5:50 pm 17:50 Partly Cloudy 84 29 70 21 62 62 E 5 7 29.99 1016 10 16 0.00 0.00
6:55 pm 18:55 Partly Cloudy 84 29 72 22 66 66 SE 7 11 29.99 1016 10 16 0.00 0.00
7:50 pm 19:50 Mostly Sunny 81 27 72 22 74 74 ESE 8 13 29.99 1016 10 16 0.00 0.00
8:50 pm 20:50 Mostly Clear 77 25 73 23 89 89 ESE 6 9 30.01 1016 10 16 0.00 0.00
9:50 pm 21:50 Mostly Clear 77 25 73 23 89 89 SE 3 6 30.02 1017 10 16 0.00 0.00
10:15 pm 22:15 Clear 76 24.5 74 23.1 92 92 Calm 30.04 1017 10 16 0.00 0.00
10:35 pm 22:35 Clear 76 24.3 74 23.3 94 94 SSE 3 6 30.05 1018 10 16 0.00 0.00
10:55 pm 22:55 Clear 77 25 73 22.5 86 86 S 5 7 30.05 1018 10 16 0.00 0.00
11:15 pm 23:15 Clear 77 25 73 22.5 86 86 S 5 7 30.05 1018 10 16 0.00 0.00
11:35 pm 23:35 Clear 76 24.5 73 22.6 89 89 Calm 30.05 1018 10 16 0.00 0.00
11:55 pm 23:55 Clear 75 23.7 73 22.5 93 93 Calm 30.06 1018 10 16 0.00 0.00

Powered by AerisWeather